| time (UTC) | temp F | wind direction | speed MPH | gust MPH | rain 1hr in | rain 24hr in | rain mn in | humidity % | barometer mb |
| 20260506044603 | 54 | 311 | 0.0 | 3.0 | 0.00 | 0.00 | 0.00 | 87 | 1018.8 |
| 20260506043057 | 55 | 346 | 0.0 | 2.0 | 0.00 | 0.00 | 0.00 | 87 | 1018.7 |
| 20260506041557 | 55 | 332 | 0.0 | 2.0 | 0.00 | 0.00 | 0.00 | 86 | 1018.5 |
| 20260506040058 | 55 | 332 | 0.0 | 0.0 | 0.00 | 0.00 | 0.00 | 86 | 1018.2 |
| 20260506034553 | 55 | 332 | 0.0 | 2.0 | 0.00 | 0.00 | 0.00 | 85 | 1018.2 |
| 20260506033050 | 56 | 332 | 0.0 | 0.0 | 0.00 | 0.00 | 0.00 | 85 | 1017.9 |
| 20260506031558 | 56 | 332 | 0.0 | 0.0 | 0.00 | 0.00 | 0.00 | 85 | 1017.8 |
| 20260506030105 | 56 | 332 | 0.0 | 3.0 | 0.00 | 0.00 | 0.00 | 84 | 1017.7 |
| 20260506024546 | 57 | 133 | 0.0 | 2.0 | 0.00 | 0.00 | 0.00 | 84 | 1017.5 |
| 20260506023043 | 57 | 133 | 0.0 | 2.0 | 0.00 | 0.00 | 0.00 | 84 | 1017.4 |
| 20260506021543 | 57 | 152 | 1.0 | 2.0 | 0.00 | 0.00 | 0.00 | 83 | 1017.2 |
| 20260506020044 | 58 | 259 | 1.0 | 4.0 | 0.00 | 0.00 | 0.00 | 81 | 1017.1 |
| 20260506014543 | 58 | 335 | 1.0 | 5.0 | 0.00 | 0.00 | 0.00 | 81 | 1017.0 |
| 20260506013046 | 59 | 15 | 2.0 | 6.0 | 0.00 | 0.00 | 0.00 | 80 | 1017.0 |
| 20260506011541 | 62 | 13 | 2.0 | 8.0 | 0.00 | 0.00 | 0.00 | 75 | 1016.9 |
| 20260506010041 | 63 | 257 | 2.0 | 5.0 | 0.00 | 0.00 | 0.00 | 74 | 1016.8 |
| 20260506004610 | 62 | 35 | 1.0 | 9.0 | 0.00 | 0.00 | 0.00 | 76 | 1016.7 |
| 20260506003039 | 63 | 244 | 2.0 | 8.0 | 0.00 | 0.00 | 0.00 | 74 | 1016.7 |
| 20260506001539 | 63 | 342 | 1.0 | 7.0 | 0.00 | 0.00 | 0.00 | 74 | 1016.7 |
| 20260506000043 | 63 | 267 | 4.0 | 8.0 | 0.00 | 0.00 | 0.00 | 73 | 1016.7 |
| 20260505234605 | 63 | 306 | 3.0 | 10.0 | 0.00 | 0.00 | 0.00 | 75 | 1016.7 |
| 20260505233036 | 64 | 246 | 3.0 | 9.0 | 0.00 | 0.00 | 0.00 | 72 | 1016.8 |
| 20260505231537 | 65 | 264 | 3.0 | 7.0 | 0.00 | 0.00 | 0.00 | 73 | 1016.8 |
| 20260505230035 | 65 | 128 | 2.0 | 9.0 | 0.00 | 0.00 | 0.00 | 74 | 1016.7 |
| 20260505224534 | 64 | 250 | 3.0 | 9.0 | 0.00 | 0.00 | 0.00 | 72 | 1016.7 |
| 20260505223037 | 64 | 182 | 1.0 | 10.0 | 0.00 | 0.00 | 0.00 | 75 | 1016.7 |
| 20260505221532 | 65 | 227 | 1.0 | 9.0 | 0.00 | 0.00 | 0.00 | 72 | 1016.5 |
| 20260505220031 | 66 | 296 | 3.0 | 9.0 | 0.00 | 0.00 | 0.00 | 71 | 1016.5 |
| 20260505214538 | 66 | 151 | 3.0 | 8.0 | 0.00 | 0.00 | 0.00 | 74 | 1016.3 |
| 20260505213030 | 66 | 227 | 2.0 | 8.0 | 0.00 | 0.00 | 0.00 | 74 | 1016.1 |
| 20260505211530 | 66 | 246 | 2.0 | 8.0 | 0.00 | 0.00 | 0.00 | 72 | 1016.1 |
| 20260505210030 | 67 | 128 | 2.0 | 8.0 | 0.00 | 0.00 | 0.00 | 70 | 1016.2 |
| 20260505204529 | 67 | 252 | 3.0 | 7.0 | 0.00 | 0.00 | 0.00 | 72 | 1016.1 |
| 20260505203026 | 66 | 280 | 1.0 | 9.0 | 0.00 | 0.00 | 0.00 | 72 | 1016.1 |
| 20260505201528 | 66 | 253 | 1.0 | 4.0 | 0.00 | 0.00 | 0.00 | 71 | 1016.2 |
| 20260505200025 | 64 | 229 | 1.0 | 4.0 | 0.00 | 0.00 | 0.00 | 72 | 1016.3 |
| 20260505194519 | 64 | 355 | 0.0 | 3.0 | 0.00 | 0.00 | 0.00 | 74 | 1016.5 |
| 20260505193016 | 63 | 333 | 1.0 | 4.0 | 0.00 | 0.00 | 0.00 | 72 | 1016.6 |
| 20260505191517 | 63 | 259 | 1.0 | 4.0 | 0.00 | 0.00 | 0.00 | 76 | 1016.9 |
| 20260505190013 | 62 | 317 | 3.0 | 8.0 | 0.00 | 0.00 | 0.00 | 78 | 1017.0 |
| 20260505184513 | 59 | 338 | 2.0 | 5.0 | 0.00 | 0.00 | 0.00 | 81 | 1017.1 |
| 20260505183010 | 58 | 317 | 1.0 | 3.0 | 0.00 | 0.00 | 0.00 | 82 | 1017.3 |
| 20260505181502 | 57 | 355 | 0.0 | 3.0 | 0.00 | 0.00 | 0.00 | 81 | 1017.3 |
| 20260505174558 | 56 | 267 | 0.0 | 2.0 | 0.00 | 0.00 | 0.00 | 83 | 1017.2 |
| 20260505173055 | 56 | 267 | 0.0 | 2.0 | 0.00 | 0.00 | 0.00 | 84 | 1017.1 |
| 20260505171553 | 55 | 271 | 0.0 | 2.0 | 0.00 | 0.00 | 0.00 | 86 | 1017.1 |
| 20260505170051 | 55 | 258 | 1.0 | 3.0 | 0.00 | 0.00 | 0.00 | 86 | 1017.1 |
| 20260505164551 | 54 | 36 | 0.0 | 1.0 | 0.00 | 0.00 | 0.00 | 87 | 1017.1 |
| 20260505163046 | 54 | 36 | 0.0 | 2.0 | 0.00 | 0.00 | 0.00 | 88 | 1017.1 |
| 20260505161544 | 54 | 36 | 0.0 | 2.0 | 0.00 | 0.00 | 0.00 | 91 | 1017.2 |
| 20260505153045 | 52 | 125 | 0.0 | 0.0 | 0.00 | 0.01 | 0.00 | 95 | 1017.1 |
| 20260505151637 | 52 | 125 | 0.0 | 0.0 | 0.00 | 0.01 | 0.00 | 96 | 1017.0 |
| 20260505124530 | 51 | 125 | 0.0 | 0.0 | 0.00 | 0.01 | 0.00 | 96 | 1016.3 |
| 20260505123030 | 51 | 125 | 0.0 | 0.0 | 0.00 | 0.01 | 0.00 | 96 | 1016.2 |
| 20260505121529 | 51 | 125 | 0.0 | 0.0 | 0.00 | 0.01 | 0.00 | 97 | 1016.1 |
| 20260505120027 | 51 | 125 | 0.0 | 0.0 | 0.00 | 0.01 | 0.00 | 96 | 1016.0 |
| 20260505114526 | 51 | 125 | 0.0 | 0.0 | 0.00 | 0.02 | 0.00 | 96 | 1016.0 |
| 20260505113030 | 51 | 125 | 0.0 | 0.0 | 0.00 | 0.02 | 0.00 | 96 | 1016.1 |
| 20260505111525 | 51 | 125 | 0.0 | 0.0 | 0.00 | 0.02 | 0.00 | 96 | 1016.1 |
| 20260505101526 | 51 | 125 | 0.0 | 0.0 | 0.00 | 0.03 | 0.00 | 96 | 1016.1 |
| 20260505100019 | 51 | 125 | 0.0 | 0.0 | 0.00 | 0.03 | 0.00 | 96 | 1016.1 |
| 20260505094525 | 51 | 125 | 0.0 | 0.0 | 0.00 | 0.03 | 0.00 | 96 | 1016.2 |
| 20260505093017 | 51 | 125 | 0.0 | 0.0 | 0.00 | 0.03 | 0.00 | 96 | 1016.2 |
| 20260505091514 | 51 | 125 | 0.0 | 0.0 | 0.00 | 0.03 | 0.00 | 96 | 1016.4 |
| 20260505090013 | 51 | 125 | 0.0 | 0.0 | 0.00 | 0.03 | 0.00 | 96 | 1016.5 |
| 20260505084517 | 51 | 125 | 0.0 | 0.0 | 0.00 | 0.03 | 0.00 | 96 | 1016.5 |
| 20260505083011 | 51 | 125 | 0.0 | 0.0 | 0.00 | 0.03 | 0.00 | 95 | 1016.6 |
| 20260505081510 | 51 | 125 | 0.0 | 0.0 | 0.00 | 0.03 | 0.00 | 95 | 1016.7 |
| 20260505080008 | 52 | 125 | 0.0 | 0.0 | 0.00 | 0.03 | 0.00 | 95 | 1016.7 |
| 20260505074507 | 52 | 125 | 0.0 | 0.0 | 0.00 | 0.03 | 0.00 | 95 | 1016.8 |
| 20260505073005 | 52 | 125 | 0.0 | 0.0 | 0.00 | 0.03 | 0.00 | 95 | 1016.8 |
| 20260505071505 | 52 | 125 | 0.0 | 0.0 | 0.00 | 0.03 | 0.00 | 95 | 1016.8 |
| 20260505070003 | 52 | 125 | 0.0 | 0.0 | 0.00 | 0.03 | 0.00 | 95 | 1016.8 |
| 20260505064502 | 52 | 125 | 0.0 | 0.0 | 0.00 | 0.03 | 0.03 | 95 | 1016.7 |
| 20260505063002 | 52 | 125 | 0.0 | 0.0 | 0.00 | 0.03 | 0.03 | 95 | 1016.8 |
| 20260505061502 | 52 | 125 | 0.0 | 0.0 | 0.00 | 0.03 | 0.03 | 94 | 1016.9 |
| 20260505060100 | 52 | 125 | 0.0 | 0.0 | 0.00 | 0.03 | 0.03 | 94 | 1016.9 |
| 20260505054611 | 52 | 125 | 0.0 | 0.0 | 0.00 | 0.03 | 0.03 | 94 | 1017.0 |
| 20260505053102 | 52 | 125 | 0.0 | 2.0 | 0.00 | 0.03 | 0.03 | 94 | 1017.1 |